TimeAKDT,TemperatureF,Dew PointF,Humidity,Sea Level PressureIn,VisibilityMPH,Wind Direction,Wind SpeedMPH,Gust SpeedMPH,PrecipitationIn,Events,Conditions,WindDirDegrees,DateUTC
12:53 AM,39.0,39.0,100,29.07,1.8,SE,16.1,-,0.00,,Overcast,130,2013-06-22 08:53:00
1:23 AM,39.2,39.2,100,29.06,2.0,SE,13.8,-,0.01,,Overcast,130,2013-06-22 09:23:00
1:36 AM,39.2,39.2,100,29.06,1.8,SE,12.7,-,0.01,,Overcast,130,2013-06-22 09:36:00
1:53 AM,39.0,39.0,100,29.06,1.5,SE,16.1,-,0.01,,Overcast,140,2013-06-22 09:53:00
2:23 AM,39.2,39.2,100,29.06,0.8,SE,13.8,-,N/A,,Overcast,130,2013-06-22 10:23:00
2:28 AM,39.2,39.2,100,29.06,1.0,SE,13.8,-,N/A,,Overcast,130,2013-06-22 10:28:00
2:48 AM,39.2,39.2,100,29.06,2.5,SE,10.4,-,N/A,,Overcast,130,2013-06-22 10:48:00
2:53 AM,39.0,39.0,100,29.07,3.0,SE,11.5,-,N/A,,Overcast,140,2013-06-22 10:53:00
3:13 AM,39.2,39.2,100,29.05,4.0,SE,12.7,-,N/A,,Overcast,130,2013-06-22 11:13:00
3:33 AM,39.2,39.2,100,29.06,2.5,SE,16.1,-,N/A,,Overcast,130,2013-06-22 11:33:00
3:53 AM,39.0,39.0,100,29.06,3.0,SE,11.5,-,N/A,,Overcast,130,2013-06-22 11:53:00
4:04 AM,39.2,39.2,100,29.06,1.8,SE,11.5,-,N/A,,Overcast,130,2013-06-22 12:04:00
4:18 AM,39.2,39.2,100,29.06,3.0,ESE,10.4,-,N/A,,Overcast,120,2013-06-22 12:18:00
4:29 AM,39.2,39.2,100,29.06,3.0,ESE,12.7,-,N/A,,Overcast,120,2013-06-22 12:29:00
4:38 AM,39.2,39.2,100,29.06,1.8,ESE,10.4,-,N/A,,Overcast,120,2013-06-22 12:38:00
4:53 AM,39.0,39.0,100,29.05,1.5,ESE,12.7,-,N/A,,Overcast,120,2013-06-22 12:53:00
5:04 AM,39.2,39.2,100,29.05,2.5,ESE,13.8,-,N/A,,Overcast,120,2013-06-22 13:04:00
5:37 AM,39.2,39.2,100,29.06,3.0,East,11.5,-,N/A,,Overcast,100,2013-06-22 13:37:00
5:46 AM,39.2,39.2,100,29.06,3.0,East,10.4,-,N/A,,Overcast,90,2013-06-22 13:46:00
5:53 AM,37.9,37.9,100,29.06,2.5,East,12.7,-,N/A,,Overcast,90,2013-06-22 13:53:00
6:08 AM,39.2,39.2,100,29.05,4.0,East,12.7,-,N/A,,Overcast,100,2013-06-22 14:08:00
6:53 AM,39.0,39.0,100,29.06,3.0,East,12.7,-,N/A,,Overcast,100,2013-06-22 14:53:00
7:31 AM,39.2,39.2,100,29.05,2.5,East,12.7,-,N/A,,Overcast,100,2013-06-22 15:31:00
7:39 AM,39.2,39.2,100,29.05,0.8,East,13.8,-,N/A,,Overcast,90,2013-06-22 15:39:00
7:48 AM,39.2,39.2,100,29.04,0.5,East,13.8,-,0.00,Fog-Rain,Light Rain,80,2013-06-22 15:48:00
7:53 AM,39.0,39.0,100,29.05,0.8,East,15.0,-,0.00,Rain,Light Rain,90,2013-06-22 15:53:00
8:01 AM,39.2,39.2,100,29.04,1.8,East,15.0,-,0.00,,Overcast,90,2013-06-22 16:01:00
8:09 AM,39.2,39.2,100,29.05,2.0,East,15.0,-,0.00,,Overcast,100,2013-06-22 16:09:00
8:33 AM,39.2,39.2,100,29.04,1.5,East,16.1,-,0.00,,Overcast,100,2013-06-22 16:33:00
8:53 AM,39.9,39.9,100,29.05,2.0,East,16.1,-,0.00,,Overcast,100,2013-06-22 16:53:00
9:19 AM,39.2,39.2,100,29.05,1.2,East,13.8,-,0.00,Rain,Light Rain,100,2013-06-22 17:19:00
9:35 AM,39.2,39.2,100,29.05,2.0,East,13.8,-,0.00,,Overcast,100,2013-06-22 17:35:00
9:46 AM,39.2,39.2,100,29.05,4.0,East,17.3,-,0.00,Rain,Light Rain,100,2013-06-22 17:46:00
9:53 AM,39.9,39.9,100,29.05,4.0,East,17.3,-,0.00,Rain,Light Rain,100,2013-06-22 17:53:00
10:35 AM,41.0,41.0,100,29.05,3.0,East,16.1,-,0.00,,Overcast,90,2013-06-22 18:35:00
10:53 AM,41.0,41.0,100,29.06,3.0,East,15.0,-,0.00,,Overcast,90,2013-06-22 18:53:00
11:16 AM,41.0,41.0,100,29.05,4.0,East,15.0,-,0.00,Rain,Light Rain,90,2013-06-22 19:16:00
11:53 AM,42.1,42.1,100,29.06,4.0,East,16.1,-,0.00,,Overcast,90,2013-06-22 19:53:00
12:11 PM,41.0,41.0,100,29.07,2.5,East,16.1,-,N/A,,Overcast,90,2013-06-22 20:11:00
12:30 PM,41.0,41.0,100,29.06,2.0,East,15.0,-,0.00,Rain,Light Rain,80,2013-06-22 20:30:00
12:36 PM,41.0,41.0,100,29.06,3.0,East,15.0,-,0.00,,Overcast,80,2013-06-22 20:36:00
12:53 PM,42.1,41.0,96,29.08,4.0,East,16.1,-,0.00,Rain,Light Rain,80,2013-06-22 20:53:00
1:09 PM,41.0,41.0,100,29.08,2.5,East,13.8,-,0.00,Rain,Light Rain,90,2013-06-22 21:09:00
1:23 PM,41.0,41.0,100,29.08,3.0,East,13.8,-,0.00,Rain,Light Rain,90,2013-06-22 21:23:00
1:53 PM,41.0,41.0,100,29.10,1.8,East,13.8,21.9,0.01,Rain,Light Rain,80,2013-06-22 21:53:00
2:44 PM,42.8,42.8,100,29.10,3.0,East,12.7,-,0.02,Rain,Light Rain,80,2013-06-22 22:44:00
2:53 PM,42.1,42.1,100,29.11,4.0,East,12.7,-,0.02,Rain,Light Rain,80,2013-06-22 22:53:00
3:21 PM,44.6,44.6,100,29.10,1.8,ENE,13.8,-,0.01,Rain,Light Rain,70,2013-06-22 23:21:00
3:33 PM,42.8,42.8,100,29.10,0.8,ENE,13.8,-,0.01,Rain,Light Rain,70,2013-06-22 23:33:00
3:45 PM,44.6,44.6,100,29.12,0.5,East,15.0,-,0.01,Fog-Rain,Light Rain,80,2013-06-22 23:45:00
3:53 PM,43.0,43.0,100,29.12,0.5,ENE,13.8,-,0.01,Fog-Rain,Light Rain,70,2013-06-22 23:53:00
4:30 PM,44.6,44.6,100,29.12,1.0,East,16.1,-,0.00,,Mist,80,2013-06-23 00:30:00
4:53 PM,44.1,44.1,100,29.13,1.2,ENE,15.0,23.0,0.00,,Overcast,70,2013-06-23 00:53:00
5:30 PM,44.6,42.8,93,29.14,2.5,East,16.1,-,N/A,,Overcast,80,2013-06-23 01:30:00
5:53 PM,43.0,43.0,100,29.15,2.0,ENE,13.8,-,N/A,,Overcast,70,2013-06-23 01:53:00
6:09 PM,42.8,42.8,100,29.15,1.2,ENE,12.7,-,N/A,,Overcast,70,2013-06-23 02:09:00
6:53 PM,42.1,42.1,100,29.17,0.8,ENE,11.5,-,N/A,,Overcast,60,2013-06-23 02:53:00
7:16 PM,41.0,41.0,100,29.17,0.5,ENE,13.8,-,N/A,Fog,Fog,60,2013-06-23 03:16:00
7:53 PM,41.0,41.0,100,29.19,0.5,ENE,12.7,-,N/A,Fog,Fog,60,2013-06-23 03:53:00
8:53 PM,39.9,39.9,100,29.23,0.5,NE,13.8,-,N/A,Fog,Fog,50,2013-06-23 04:53:00
9:17 PM,41.0,41.0,100,29.23,1.0,ENE,11.5,-,N/A,,Mist,60,2013-06-23 05:17:00
9:34 PM,39.2,39.2,100,29.23,0.8,NE,13.8,-,N/A,,Mist,50,2013-06-23 05:34:00
9:48 PM,39.2,39.2,100,29.25,1.2,NE,11.5,-,N/A,,Overcast,50,2013-06-23 05:48:00
9:53 PM,39.9,39.9,100,29.26,1.2,NE,12.7,-,N/A,,Overcast,50,2013-06-23 05:53:00
10:09 PM,39.2,39.2,100,29.26,0.8,NE,12.7,-,N/A,,Mist,50,2013-06-23 06:09:00
10:53 PM,39.9,39.9,100,29.29,1.8,NE,13.8,-,N/A,,Overcast,40,2013-06-23 06:53:00
11:05 PM,39.2,39.2,100,29.30,2.5,NE,10.4,-,N/A,,Overcast,50,2013-06-23 07:05:00
11:15 PM,39.2,39.2,100,29.29,3.0,NE,11.5,-,N/A,,Overcast,50,2013-06-23 07:15:00
11:22 PM,39.2,39.2,100,29.30,3.0,NE,10.4,-,N/A,,Overcast,50,2013-06-23 07:22:00
11:38 PM,39.2,39.2,100,29.31,3.0,NE,11.5,-,N/A,,Overcast,50,2013-06-23 07:38:00
11:53 PM,39.9,39.9,100,29.32,3.0,NE,13.8,-,N/A,,Overcast,50,2013-06-23 07:53:00